Flag for U.S.A. Weather past 2 weeks in Portland, Maine, U.S.A.

Now
67 °F

Clear.


Feels Like: 67 °F
Forecast: 66 / 81 °F
Wind: 7 mph from Southwest

Location: Portland - Portland International Jetport

Current Time: Aug 27, 2014 at 6:59:09 AM

Latest Report: Aug 27, 2014 at 5:51 AM


Visibility: 10 mi

Pressure: 29.93 "Hg

Humidity: 87%

Dew point: 63 °F

Location of PortlandLocation

Historic Weather in Portland — Graph

°F

Portland temperature yesterday

Maximum temperature yesterday: 79 °F (at 11:51 AM)
Minimum temperature yesterday: 59 °F (at 5:51 AM)
Average temperature yesterday: 70 °F

Past Weeks' High & Low Weather Summary

 TemperatureHumidityPressure
High84 °F (Aug 25, 12:51 PM)100% (Aug 12, 4:51 AM)30.15 "Hg (Aug 12, 4:51 AM)
Low51 °F (Aug 19, 4:51 AM)44% (Aug 14, 4:51 PM)29.60 "Hg (Aug 14, 12:51 AM)
Average66 °F76%29.98 "Hg
* Reported Aug 12 4:51 AM — Aug 27 4:51 AM, Portland, Weather by CustomWeather, © 2014

Note: Actual official high and low records may vary slightly from our data, if they occured in-between our weather recording intervals... More about our weather records

Advertising

Portland weather history for previous 24 hours

 ConditionsComfort  
Time TempWeatherWind HumidityBarometerVisibility
4:51 AM
Aug 27
67 °FClear.6 mph87%29.93 "Hg10 mi
3:51 AM68 °FClear.6 mph84%29.93 "Hg10 mi
2:51 AM68 °FClear.6 mph84%29.94 "Hg10 mi
1:51 AM68 °FClear.6 mph84%29.96 "Hg10 mi
12:51 AM68 °FClear.7 mph84%29.98 "Hg10 mi
11:51 PM
Aug 26
67 °FClear.5 mph87%29.99 "Hg10 mi
10:51 PM67 °FClear.6 mph87%29.99 "Hg10 mi
9:51 PM68 °FClear.8 mph82%30.01 "Hg10 mi
8:51 PM68 °FPassing clouds.8 mph78%30.02 "Hg10 mi
7:51 PM69 °FPassing clouds.8 mph76%30.01 "Hg10 mi
6:51 PM71 °FPassing clouds.9 mph71%30.03 "Hg10 mi
5:51 PM72 °FPassing clouds.10 mph71%30.03 "Hg10 mi
4:51 PM77 °FPassing clouds.9 mph64%30.05 "Hg10 mi
3:51 PM77 °FPassing clouds.13 mph66%30.06 "Hg10 mi
2:51 PM78 °FPassing clouds.9 mph66%30.08 "Hg10 mi
1:51 PM78 °FScattered clouds.13 mph66%30.09 "Hg10 mi
12:51 PM79 °FPassing clouds.13 mph65%30.11 "Hg10 mi
11:51 AM79 °FPassing clouds.8 mph67%30.12 "Hg10 mi
10:51 AM78 °FSunny.5 mph66%30.14 "Hg10 mi
9:51 AM75 °FSunny.5 mph66%30.14 "Hg10 mi
8:51 AM72 °FSunny.3 mph76%30.14 "Hg8 mi
7:51 AM66 °FSunny.No wind84%30.15 "Hg10 mi
6:51 AM61 °FClear.No wind93%30.14 "Hg7 mi
Weather by CustomWeather, © 2014

See weather overviewHow to use our weather pages